Location: Badlands Tank
(34.7185°N, 107.0376°W)
Time: 21:31:59
(UTC+00:00)

Cosmos 841 Rocket - Visible Passes

Search period start: 18 November 2025 00:00
Search period end: 28 November 2025 00:00
Orbit: 742 x 767 km, 74.0° (Epoch: 18 November)

Date Brightness Start Highest point End Pass type
(mag) Time Alt. Az. Time Alt. Az. Time Alt. Az.
18 Nov 5.0 00:54:06 10° NNE 00:57:13 16° ENE 00:57:38 15° ENE visible
18 Nov 4.6 02:34:13 10° NNW 02:37:44 40° NW 02:37:44 40° NW visible
19 Nov 3.3 01:53:07 10° NNW 01:58:23 74° ENE 01:59:49 48° SE visible
20 Nov 3.9 01:12:24 10° N 01:17:17 38° ENE 01:22:06 10° SE visible
20 Nov 5.8 02:54:52 10° NW 02:58:43 21° W 03:02:34 10° SW visible
21 Nov 4.7 00:32:11 10° NNE 00:36:02 20° ENE 00:39:51 10° ESE visible
21 Nov 4.7 02:13:02 10° NNW 02:17:57 41° WSW 02:22:49 10° S visible
22 Nov 3.5 01:31:46 10° NNW 01:37:02 84° WSW 01:42:15 10° SSE visible
23 Nov 3.7 00:50:54 10° N 00:56:00 50° ENE 01:01:03 10° SE visible
23 Nov 6.3 02:34:12 10° WNW 02:37:15 16° W 02:40:18 10° SW visible
24 Nov 5.3 01:51:57 10° NW 01:56:32 31° W 02:01:04 10° SSW visible
24 Nov 7.1 13:04:24 10° E 13:04:53 10° E 13:05:21 10° E visible
25 Nov 4.0 01:10:30 10° NNW 01:15:40 63° WSW 01:20:48 10° S visible
26 Nov 3.5 00:29:27 10° N 00:34:41 66° ENE 00:39:51 10° SSE visible
26 Nov 6.8 02:14:08 10° WNW 02:15:46 11° W 02:17:23 10° WSW visible
26 Nov 5.9 13:19:41 10° SSE 13:24:05 29° E 13:28:30 10° NE visible
27 Nov 6.0 01:30:59 10° NW 01:35:05 24° W 01:39:09 10° SSW visible
27 Nov 6.7 12:40:41 10° SE 12:43:22 14° E 12:46:03 10° ENE visible
